Tracking 19475 objects as of 18-Jan-2019
HD Live streaming from Space Station
objects crossing your sky now

COSMOS 2146

Track COSMOS 2146 now!
10-day predictions
COSMOS 2146 is classified as:


NORAD ID: 21302
Int'l Code: 1991-033D
Perigee: 1,398.9 km
Apogee: 1,424.3 km
Inclination: 82.6 °
Period: 113.9 minutes
Semi major axis: 7782 km
RCS: 1.19 m2 (large)
Launch date: May 16, 1991
Source: Commonwealth of Independent States (former USSR) (CIS)
Launch site: PLESETSK MISSILE AND SPACE COMPLEX (PKMTR)
aabbcc
Your satellite tracking list
Your tracking list is empty




NASA's NSSDC Master Catalog

Two Line Element Set (TLE):
1 21302U 91033D   19018.06076647  .00000033  00000-0  11834-3 0  9995
2 21302  82.5733 229.3898 0016311  67.3903 292.8913 12.64483183277403
Source of the keplerian elements: AFSPC